COSMOS 1691 DEB, 43317

Orbit data source: Space-Track

COSMOS 1691 DEB, 43317 is space debris in LEO originally from a launch on Wed, 09 Oct 1985 UTC launched from the Plesetsk Missile And Space Complex (PKMTR). Debris objects in space refer to the collection of defunct objects orbiting the Earth. Examples of debris include non-operational satellites, rocket bodies, and fragments generated from explosions, collisions, or faulty payload assembly.

Loading next visibility...
COSMOS 1691 DEB details
Identifier
43317, 1985-094AB
Orbit
LEO
Last TLE update2 days ago
Origin
Flag of CISRVSN (CIS)
ManufacturerUnknown
MissionSpacecraft
Bus & MotorUnknown
MassUnknown
Launch date (UTC)
1985-10-09 (39 years ago)
Launch vehicleUnknown
Launch site
Plesetsk Missile And Space Complex (PKMTR)
Object type
Payload
Rocket body
Debris
Shape & HBRUnknown
Radar Cross SectionSmall (<0.1 m²)

Expand to show TLE details & history

TLE from 2 days ago
0 COSMOS 1691 DEB
1 43317U 85094AB  24359.88463572  .00000641  00000-0  29106-2 0  9991
2 43317  82.5572  44.7381 0019939 156.7474 203.4531 12.76332099516441
Epoch: 2024-12-24T21:13Z
Definitive object data (Epoch: 2024-12-24T21:13:52.526Z)
Latitude-0.00006°
Longitude-7.61709°
Altitude1,373.157 km
Speed7.166 km/s
True Right ascension02h 58m 57s
True Declination0° 00' 00"
Sunlit
Object was in full shadow at TLE epoch
Visualization TLE readout
Latitude14.31444°
Longitude169.17214°
Altitude1,343.274 km
Speed7.194 km/s
Apparent Right ascension12h 28m 43s
Apparent Declination-14° 04' 30"
Sunlit
Object is in daylight
Visualization observer readout
Local Sidereal Time20:30:38
Azimuth278.785° WNW
Elevation-32.236°
Doppler factor1
Orbital elements
Apogee altitude1,368.97 km
Perigee altitude1,338.138 km
Semi-major axis7,731.691 km
Eccentricity0.0019939
Inclination82.5572°
RAAN44.7381°
Arg. of periapsis156.7474°
True anomaly203.36237°
Mean anomaly203.4531°
Eccentric anomaly203.40771°
Mean motion3.1925 °/min
BSTAR0.0029106
Orbital period112.76 mins
Loading maneuver chart data...
Loading historical data...
Loading historical data...
Loading historical data...
Loading historical data...
Loading historical data...
Loading historical data...
Loading historical data...

COSMOS 1691 DEB Visibility forecast

Observer location: undefined°, undefined

Span
Click to sort rows by Start time (UTC) header in descending order
Start Az.
Max El. time (UTC)
Max El. Az.
Max El.
End time (UTC)
End Az.
9 mins2024-12-27 02:02:42.419Z115.961° SE2024-12-27 02:07:42.419Z76.463° E17.035°2024-12-27 02:11:42.419Z44.667° NE
14 mins2024-12-27 03:53:42.419Z189.548° SSW2024-12-27 03:59:42.419Z230.793° WSW44.602°2024-12-27 04:07:42.419Z6.097° NNE
7 mins2024-12-27 05:51:42.419Z270.584° WNW2024-12-27 05:54:42.419Z294.301° NW15.031°2024-12-27 05:58:42.419Z326.257° NNW
13 mins2024-12-27 13:48:42.419Z13.374° NNE2024-12-27 13:54:42.419Z72.314° E30.035°2024-12-27 14:01:42.419Z135.8° SSE
13 mins2024-12-27 15:42:42.419Z335.188° NNW2024-12-27 15:48:42.419Z268.318° W35.406°2024-12-27 15:55:42.419Z203.02° SW
|